Location: Gro�sch�nbrunn
(49.5760°N, 11.8868°E)
Time: 22:01:37
(UTC+00:00)

SJ-6B - Pass Details

Date: 18 September 2020
Orbit: 511 x 580 km, 97.6° (Epoch: 31 October)

Event Time Altitude Azimuth Distance (km) Brightness Sun altitude
Exits shadow 17:46:45 - 118° (ESE) 2,109 5.2 -5.4°
Reaches altitude 10° 17:47:54 10° 107° (ESE) 1,736 4.7 -5.6°
Maximum altitude 17:50:31 18° 63° (ENE) 1,299 4.3 -6.0°
Drops below altitude 10° 17:53:09 10° 18° (NNE) 1,756 5.3 -6.4°
Sets 17:55:44 0° 360° (N) 2,658 6.5 -6.8°
